Time,TemperatureF,DewpointF,PressureIn,WindDirection,WindDirectionDegrees,WindSpeedMPH,WindSpeedGustMPH,Humidity,HourlyPrecipIn,Conditions,Clouds,dailyrainin,SoftwareType,DateUTC
2013-03-01 00:02:00,23.7,12.2,30.24,ESE,112,3.4,3.8,61,0.00,,---,0.00,VWS V14.01,2013-03-01 06:02:00,
2013-03-01 00:08:00,23.7,12.2,30.24,ESE,112,1.6,3.4,61,0.00,,---,0.00,VWS V14.01,2013-03-01 06:08:00,
2013-03-01 00:13:00,23.5,12.1,30.24,East,90,1.3,3.1,61,0.00,,---,0.00,VWS V14.01,2013-03-01 06:13:00,
2013-03-01 00:18:00,23.5,12.1,30.24,ENE,68,3.8,4.9,61,0.00,,---,0.00,VWS V14.01,2013-03-01 06:18:00,
2013-03-01 00:23:00,23.5,12.1,30.24,East,90,2.0,5.4,61,0.00,,---,0.00,VWS V14.01,2013-03-01 06:23:00,
2013-03-01 00:28:00,23.5,12.1,30.24,East,90,4.7,4.7,61,0.00,,---,0.00,VWS V14.01,2013-03-01 06:28:00,
2013-03-01 00:34:00,23.5,12.1,30.24,NE,45,1.6,2.7,61,0.00,,---,0.00,VWS V14.01,2013-03-01 06:34:00,
2013-03-01 00:39:00,23.5,12.1,30.24,NNE,22,4.9,4.9,61,0.00,,---,0.00,VWS V14.01,2013-03-01 06:39:00,
2013-03-01 00:45:00,23.5,12.1,30.24,East,90,3.6,3.6,61,0.00,,---,0.00,VWS V14.01,2013-03-01 06:45:00,
2013-03-01 00:51:00,23.4,11.5,30.24,East,90,2.5,4.0,60,0.00,,---,0.00,VWS V14.01,2013-03-01 06:51:00,
2013-03-01 00:57:00,23.4,11.5,30.24,NE,45,4.9,7.2,60,0.00,,---,0.00,VWS V14.01,2013-03-01 06:57:00,
2013-03-01 01:03:00,23.2,11.4,30.24,NE,45,3.6,10.7,60,0.00,,---,0.00,VWS V14.01,2013-03-01 07:03:00,
2013-03-01 01:08:00,23.2,11.4,30.24,ENE,68,4.9,4.9,60,0.00,,---,0.00,VWS V14.01,2013-03-01 07:08:00,
2013-03-01 01:14:00,23.2,11.4,30.24,NNE,22,7.4,7.4,60,0.00,,---,0.00,VWS V14.01,2013-03-01 07:14:00,
2013-03-01 01:19:00,23.2,11.4,30.24,ENE,68,2.0,2.7,60,0.00,,---,0.00,VWS V14.01,2013-03-01 07:19:00,
2013-03-01 01:24:00,23.0,11.2,30.24,NNE,22,3.4,3.4,60,0.00,,---,0.00,VWS V14.01,2013-03-01 07:24:00,
2013-03-01 01:29:00,23.0,11.2,30.24,NE,45,5.4,5.4,60,0.00,,---,0.00,VWS V14.01,2013-03-01 07:29:00,
2013-03-01 01:34:00,23.0,11.2,30.24,NE,45,4.0,7.6,60,0.00,,---,0.00,VWS V14.01,2013-03-01 07:34:00,
2013-03-01 01:39:00,23.0,11.2,30.24,ENE,68,2.9,4.0,60,0.00,,---,0.00,VWS V14.01,2013-03-01 07:39:00,
2013-03-01 01:44:00,22.8,11.0,30.24,NE,45,4.3,5.6,60,0.00,,---,0.00,VWS V14.01,2013-03-01 07:44:00,
2013-03-01 01:49:00,22.8,10.6,30.24,ENE,68,1.6,4.9,59,0.00,,---,0.00,VWS V14.01,2013-03-01 07:49:00,
2013-03-01 01:54:00,22.8,10.6,30.24,ENE,68,2.2,3.1,59,0.00,,---,0.00,VWS V14.01,2013-03-01 07:54:00,
2013-03-01 02:00:00,22.8,11.0,30.24,East,90,3.1,4.9,60,0.00,,---,0.00,VWS V14.01,2013-03-01 08:00:00,
2013-03-01 02:04:00,22.8,11.0,30.24,ENE,68,2.9,6.3,60,0.00,,---,0.00,VWS V14.01,2013-03-01 08:04:00,
2013-03-01 02:09:00,22.8,11.0,30.24,NE,45,2.0,6.3,60,0.00,,---,0.00,VWS V14.01,2013-03-01 08:09:00,
2013-03-01 02:14:00,22.8,11.0,30.24,NNE,22,3.4,3.4,60,0.00,,---,0.00,VWS V14.01,2013-03-01 08:14:00,
2013-03-01 02:19:00,22.8,11.0,30.24,NE,45,1.3,2.9,60,0.00,,---,0.00,VWS V14.01,2013-03-01 08:19:00,
2013-03-01 02:24:00,22.8,11.0,30.24,ESE,112,1.1,2.5,60,0.00,,---,0.00,VWS V14.01,2013-03-01 08:24:00,
2013-03-01 02:29:00,22.8,11.0,30.24,ENE,68,6.0,6.0,60,0.00,,---,0.00,VWS V14.01,2013-03-01 08:29:00,
2013-03-01 02:34:00,22.8,11.0,30.24,ENE,68,1.6,3.1,60,0.00,,---,0.00,VWS V14.01,2013-03-01 08:34:00,
2013-03-01 02:39:00,22.8,11.4,30.24,NE,45,2.7,2.9,61,0.00,,---,0.00,VWS V14.01,2013-03-01 08:39:00,
2013-03-01 02:45:00,22.8,11.4,30.24,ESE,112,1.6,2.9,61,0.00,,---,0.00,VWS V14.01,2013-03-01 08:45:00,
2013-03-01 02:50:00,22.8,11.4,30.24,NNE,22,3.4,3.8,61,0.00,,---,0.00,VWS V14.01,2013-03-01 08:50:00,
2013-03-01 02:55:00,22.8,11.4,30.24,NE,45,1.6,2.5,61,0.00,,---,0.00,VWS V14.01,2013-03-01 08:55:00,
2013-03-01 03:00:00,22.8,11.4,30.24,NNE,22,5.4,5.4,61,0.00,,---,0.00,VWS V14.01,2013-03-01 09:00:00,
2013-03-01 03:05:00,22.8,11.4,30.24,ENE,68,3.8,5.6,61,0.00,,---,0.00,VWS V14.01,2013-03-01 09:05:00,
2013-03-01 03:10:00,22.8,11.4,30.24,SE,135,1.1,2.5,61,0.00,,---,0.00,VWS V14.01,2013-03-01 09:10:00,
2013-03-01 03:15:00,22.8,11.4,30.24,NE,45,3.8,3.8,61,0.00,,---,0.00,VWS V14.01,2013-03-01 09:15:00,
2013-03-01 03:20:00,22.8,11.4,30.24,NW,315,1.6,2.5,61,0.00,,---,0.00,VWS V14.01,2013-03-01 09:20:00,
2013-03-01 03:25:00,22.8,11.4,30.24,NE,45,3.4,3.4,61,0.00,,---,0.00,VWS V14.01,2013-03-01 09:25:00,
2013-03-01 03:30:00,22.8,11.8,30.24,NNE,22,4.9,4.9,62,0.00,,---,0.00,VWS V14.01,2013-03-01 09:30:00,
2013-03-01 03:35:00,23.0,11.9,30.24,NE,45,3.4,3.4,62,0.00,,---,0.00,VWS V14.01,2013-03-01 09:35:00,
2013-03-01 03:40:00,23.0,11.9,30.24,NE,45,3.1,5.8,62,0.00,,---,0.00,VWS V14.01,2013-03-01 09:40:00,
2013-03-01 03:45:00,22.8,11.8,30.24,ENE,68,1.1,1.6,62,0.00,,---,0.00,VWS V14.01,2013-03-01 09:45:00,
2013-03-01 03:50:00,22.8,11.8,30.24,NE,45,2.7,2.7,62,0.00,,---,0.00,VWS V14.01,2013-03-01 09:50:00,
2013-03-01 03:55:00,23.0,11.9,30.27,North,0,2.9,6.3,62,0.00,,---,0.00,VWS V14.01,2013-03-01 09:55:00,
2013-03-01 04:00:00,23.0,11.6,30.27,ENE,68,2.7,3.1,61,0.00,,---,0.00,VWS V14.01,2013-03-01 10:00:00,
2013-03-01 04:05:00,23.0,11.6,30.27,NE,45,1.3,2.5,61,0.00,,---,0.00,VWS V14.01,2013-03-01 10:05:00,
2013-03-01 04:10:00,23.0,11.6,30.27,NE,45,3.1,4.5,61,0.00,,---,0.00,VWS V14.01,2013-03-01 10:10:00,
2013-03-01 04:15:00,23.0,11.6,30.24,NE,45,3.8,5.8,61,0.00,,---,0.00,VWS V14.01,2013-03-01 10:15:00,
2013-03-01 04:20:00,23.0,11.6,30.24,East,90,2.7,2.7,61,0.00,,---,0.00,VWS V14.01,2013-03-01 10:20:00,
2013-03-01 04:26:00,23.0,11.6,30.24,NE,45,1.1,2.5,61,0.00,,---,0.00,VWS V14.01,2013-03-01 10:26:00,
2013-03-01 04:32:00,23.0,11.6,30.24,NE,45,4.0,4.3,61,0.00,,---,0.00,VWS V14.01,2013-03-01 10:32:00,
2013-03-01 04:37:00,23.0,11.6,30.24,ENE,68,2.0,3.8,61,0.00,,---,0.00,VWS V14.01,2013-03-01 10:37:00,
2013-03-01 04:42:00,22.8,11.0,30.27,East,90,2.0,2.2,60,0.00,,---,0.00,VWS V14.01,2013-03-01 10:42:00,
2013-03-01 04:47:00,22.8,11.0,30.27,ENE,68,2.9,2.9,60,0.00,,---,0.00,VWS V14.01,2013-03-01 10:47:00,
2013-03-01 04:52:00,22.8,11.0,30.27,NE,45,2.5,3.4,60,0.00,,---,0.00,VWS V14.01,2013-03-01 10:52:00,
2013-03-01 04:57:00,23.0,11.2,30.27,ENE,68,2.5,2.5,60,0.00,,---,0.00,VWS V14.01,2013-03-01 10:57:00,
2013-03-01 05:02:00,23.0,10.8,30.27,NE,45,2.7,2.9,59,0.00,,---,0.00,VWS V14.01,2013-03-01 11:02:00,
2013-03-01 05:07:00,23.0,11.2,30.27,ENE,68,1.3,3.4,60,0.00,,---,0.00,VWS V14.01,2013-03-01 11:07:00,
2013-03-01 05:12:00,23.0,11.2,30.27,ENE,68,0.0,2.2,60,0.00,,---,0.00,VWS V14.01,2013-03-01 11:12:00,
2013-03-01 05:17:00,22.8,11.0,30.27,ESE,112,1.3,3.6,60,0.00,,---,0.00,VWS V14.01,2013-03-01 11:17:00,
2013-03-01 05:22:00,23.0,11.2,30.27,ESE,112,2.2,2.2,60,0.00,,---,0.00,VWS V14.01,2013-03-01 11:22:00,
2013-03-01 05:28:00,23.0,11.2,30.27,ENE,68,1.3,4.0,60,0.00,,---,0.00,VWS V14.01,2013-03-01 11:28:00,
2013-03-01 05:34:00,23.0,11.2,30.27,ENE,68,0.0,1.1,60,0.00,,---,0.00,VWS V14.01,2013-03-01 11:34:00,
2013-03-01 05:39:00,23.0,11.2,30.27,ESE,112,1.6,1.6,60,0.00,,---,0.00,VWS V14.01,2013-03-01 11:39:00,
2013-03-01 05:45:00,23.0,11.2,30.27,NNE,22,1.3,2.0,60,0.00,,---,0.00,VWS V14.01,2013-03-01 11:45:00,
2013-03-01 05:50:00,23.0,11.2,30.27,NNW,338,0.0,1.3,60,0.00,,---,0.00,VWS V14.01,2013-03-01 11:50:00,
2013-03-01 05:55:00,23.0,11.2,30.27,ENE,68,2.0,3.8,60,0.00,,---,0.00,VWS V14.01,2013-03-01 11:55:00,
2013-03-01 06:01:00,23.0,11.2,30.27,East,90,1.6,2.2,60,0.00,,---,0.00,VWS V14.01,2013-03-01 12:01:00,
2013-03-01 06:06:00,23.0,11.2,30.27,ENE,68,1.6,2.0,60,0.00,,---,0.00,VWS V14.01,2013-03-01 12:06:00,
2013-03-01 06:12:00,23.0,11.2,30.30,NE,45,1.1,2.5,60,0.00,,---,0.00,VWS V14.01,2013-03-01 12:12:00,
2013-03-01 06:16:00,23.0,11.2,30.30,East,90,1.6,1.6,60,0.00,,---,0.00,VWS V14.01,2013-03-01 12:16:00,
2013-03-01 06:22:00,23.0,11.2,30.30,ENE,68,1.6,2.0,60,0.00,,---,0.00,VWS V14.01,2013-03-01 12:22:00,
2013-03-01 06:27:00,23.0,11.2,30.30,NW,315,2.0,2.0,60,0.00,,---,0.00,VWS V14.01,2013-03-01 12:27:00,
2013-03-01 06:32:00,23.0,11.2,30.30,NE,45,1.1,2.9,60,0.00,,---,0.00,VWS V14.01,2013-03-01 12:32:00,
2013-03-01 06:37:00,23.0,11.2,30.30,North,0,1.1,2.5,60,0.00,,---,0.00,VWS V14.01,2013-03-01 12:37:00,
2013-03-01 06:42:00,23.0,11.2,30.30,NE,45,3.4,3.4,60,0.00,,---,0.00,VWS V14.01,2013-03-01 12:42:00,
2013-03-01 06:47:00,23.0,11.2,30.30,NNE,22,1.6,3.6,60,0.00,,---,0.00,VWS V14.01,2013-03-01 12:47:00,
2013-03-01 06:53:00,23.0,11.6,30.30,NNW,338,0.9,2.5,61,0.00,,---,0.00,VWS V14.01,2013-03-01 12:53:00,
2013-03-01 06:59:00,23.0,11.6,30.30,ENE,68,2.2,3.1,61,0.00,,---,0.00,VWS V14.01,2013-03-01 12:59:00,
2013-03-01 07:04:00,23.0,11.6,30.30,NNE,22,1.1,2.7,61,0.00,,---,0.00,VWS V14.01,2013-03-01 13:04:00,
2013-03-01 07:09:00,23.2,11.7,30.30,NNE,22,1.6,2.5,61,0.00,,---,0.00,VWS V14.01,2013-03-01 13:09:00,
2013-03-01 07:14:00,23.2,11.7,30.30,NNE,22,0.0,0.0,61,0.00,,---,0.00,VWS V14.01,2013-03-01 13:14:00,
2013-03-01 07:20:00,23.2,11.7,30.30,ENE,68,2.5,3.8,61,0.00,,---,0.00,VWS V14.01,2013-03-01 13:20:00,
2013-03-01 07:25:00,23.4,11.9,30.30,NE,45,2.5,4.7,61,0.00,,---,0.00,VWS V14.01,2013-03-01 13:25:00,
2013-03-01 07:30:00,23.4,11.9,30.30,NNE,22,2.0,2.7,61,0.00,,---,0.00,VWS V14.01,2013-03-01 13:30:00,
2013-03-01 07:36:00,23.4,11.9,30.30,North,0,2.9,4.9,61,0.00,,---,0.00,VWS V14.01,2013-03-01 13:36:00,
2013-03-01 07:42:00,23.5,12.1,30.30,NW,315,2.9,3.4,61,0.00,,---,0.00,VWS V14.01,2013-03-01 13:42:00,
2013-03-01 07:47:00,23.5,12.1,30.30,East,90,2.7,2.7,61,0.00,,---,0.00,VWS V14.01,2013-03-01 13:47:00,
2013-03-01 07:53:00,23.5,12.1,30.30,NNE,22,2.2,2.9,61,0.00,,---,0.00,VWS V14.01,2013-03-01 13:53:00,
2013-03-01 07:58:00,23.7,12.2,30.30,NE,45,1.1,2.5,61,0.00,,---,0.00,VWS V14.01,2013-03-01 13:58:00,
2013-03-01 08:04:00,23.7,11.9,30.30,NNE,22,2.5,3.1,60,0.00,,---,0.00,VWS V14.01,2013-03-01 14:04:00,
2013-03-01 08:10:00,23.9,12.1,30.30,ENE,68,2.0,2.9,60,0.00,,---,0.00,VWS V14.01,2013-03-01 14:10:00,
2013-03-01 08:16:00,23.9,12.1,30.30,ENE,68,3.8,3.8,60,0.00,,---,0.00,VWS V14.01,2013-03-01 14:16:00,
2013-03-01 08:21:00,24.1,12.2,30.30,ESE,112,1.6,2.7,60,0.00,,---,0.00,VWS V14.01,2013-03-01 14:21:00,
2013-03-01 08:27:00,24.3,12.0,30.33,ESE,112,3.4,3.4,59,0.00,,---,0.00,VWS V14.01,2013-03-01 14:27:00,
2013-03-01 08:32:00,24.4,12.2,30.33,NE,45,2.5,3.6,59,0.00,,---,0.00,VWS V14.01,2013-03-01 14:32:00,
2013-03-01 08:37:00,24.6,12.4,30.33,NNE,22,3.6,3.6,59,0.00,,---,0.00,VWS V14.01,2013-03-01 14:37:00,
2013-03-01 08:43:00,24.8,12.5,30.33,NE,45,1.3,3.8,59,0.00,,---,0.00,VWS V14.01,2013-03-01 14:43:00,
2013-03-01 08:48:00,25.0,12.7,30.33,NNW,338,1.6,2.0,59,0.00,,---,0.00,VWS V14.01,2013-03-01 14:48:00,
2013-03-01 08:53:00,25.2,12.5,30.33,ENE,68,3.1,5.4,58,0.00,,---,0.00,VWS V14.01,2013-03-01 14:53:00,
2013-03-01 08:59:00,25.3,12.6,30.33,NE,45,3.4,3.4,58,0.00,,---,0.00,VWS V14.01,2013-03-01 14:59:00,
2013-03-01 09:04:00,25.5,12.8,30.33,NE,45,2.5,4.3,58,0.00,,---,0.00,VWS V14.01,2013-03-01 15:04:00,
2013-03-01 09:09:00,25.5,12.8,30.33,NE,45,2.5,4.3,58,0.00,,---,0.00,VWS V14.01,2013-03-01 15:09:00,
2013-03-01 09:14:00,25.7,13.0,30.33,ENE,68,2.0,3.6,58,0.00,,---,0.00,VWS V14.01,2013-03-01 15:14:00,
2013-03-01 09:20:00,25.9,12.8,30.33,East,90,2.5,3.8,57,0.00,,---,0.00,VWS V14.01,2013-03-01 15:20:00,
2013-03-01 09:25:00,26.1,13.3,30.33,NNE,22,0.0,4.3,58,0.00,,---,0.00,VWS V14.01,2013-03-01 15:25:00,
2013-03-01 09:30:00,26.4,13.7,30.33,North,0,4.9,4.9,58,0.00,,---,0.00,VWS V14.01,2013-03-01 15:30:00,
2013-03-01 09:35:00,26.8,13.6,30.33,ENE,68,2.5,2.5,57,0.00,,---,0.00,VWS V14.01,2013-03-01 15:35:00,
2013-03-01 09:41:00,27.1,13.9,30.33,NE,45,3.4,5.4,57,0.00,,---,0.00,VWS V14.01,2013-03-01 15:41:00,
2013-03-01 09:46:00,27.1,13.5,30.33,ENE,68,3.4,3.4,56,0.00,,---,0.00,VWS V14.01,2013-03-01 15:46:00,
2013-03-01 09:52:00,27.3,13.7,30.33,ENE,68,3.1,3.6,56,0.00,,---,0.00,VWS V14.01,2013-03-01 15:52:00,
2013-03-01 09:57:00,27.5,13.9,30.33,ENE,68,4.5,4.5,56,0.00,,---,0.00,VWS V14.01,2013-03-01 15:57:00,
2013-03-01 10:02:00,27.7,14.0,30.33,NNW,338,3.6,3.6,56,0.00,,---,0.00,VWS V14.01,2013-03-01 16:02:00,
2013-03-01 10:07:00,28.0,14.4,30.33,ENE,68,2.9,3.8,56,0.00,,---,0.00,VWS V14.01,2013-03-01 16:07:00,
2013-03-01 10:12:00,28.0,14.0,30.36,NNE,22,1.6,3.1,55,0.00,,---,0.00,VWS V14.01,2013-03-01 16:12:00,
2013-03-01 10:17:00,28.0,14.0,30.36,NNE,22,3.8,6.0,55,0.00,,---,0.00,VWS V14.01,2013-03-01 16:17:00,
2013-03-01 10:23:00,28.2,14.1,30.36,SE,135,2.0,4.0,55,0.00,,---,0.00,VWS V14.01,2013-03-01 16:23:00,
2013-03-01 10:28:00,28.0,13.6,30.33,NW,315,2.9,6.3,54,0.00,,---,0.00,VWS V14.01,2013-03-01 16:28:00,
2013-03-01 10:33:00,28.2,14.1,30.33,NE,45,3.1,3.8,55,0.00,,---,0.00,VWS V14.01,2013-03-01 16:33:00,
2013-03-01 10:38:00,28.2,13.7,30.33,ENE,68,3.6,5.4,54,0.00,,---,0.00,VWS V14.01,2013-03-01 16:38:00,
2013-03-01 10:44:00,28.6,14.1,30.36,WNW,292,3.6,4.0,54,0.00,,---,0.00,VWS V14.01,2013-03-01 16:44:00,
2013-03-01 10:49:00,28.8,14.6,30.36,NW,315,2.2,3.4,55,0.00,,---,0.00,VWS V14.01,2013-03-01 16:49:00,
2013-03-01 10:55:00,28.6,14.1,30.36,NE,45,5.4,5.4,54,0.00,,---,0.00,VWS V14.01,2013-03-01 16:55:00,
2013-03-01 11:01:00,28.2,13.7,30.33,North,0,2.7,3.1,54,0.00,,---,0.00,VWS V14.01,2013-03-01 17:01:00,
2013-03-01 11:06:00,28.4,14.3,30.33,NE,45,2.9,4.7,55,0.00,,---,0.00,VWS V14.01,2013-03-01 17:06:00,
2013-03-01 11:12:00,28.0,13.6,30.36,NNE,22,3.4,3.8,54,0.00,,---,0.00,VWS V14.01,2013-03-01 17:12:00,
2013-03-01 11:18:00,27.9,13.4,30.36,NNW,338,2.9,5.4,54,0.00,,---,0.00,VWS V14.01,2013-03-01 17:18:00,
2013-03-01 11:23:00,28.0,13.6,30.36,NNE,22,2.5,5.8,54,0.00,,---,0.00,VWS V14.01,2013-03-01 17:23:00,
2013-03-01 11:29:00,28.6,14.1,30.36,North,0,2.9,3.6,54,0.00,,---,0.00,VWS V14.01,2013-03-01 17:29:00,
2013-03-01 11:34:00,28.6,14.1,30.36,NNW,338,1.3,3.4,54,0.00,,---,0.00,VWS V14.01,2013-03-01 17:34:00,
2013-03-01 11:40:00,28.6,14.1,30.36,NNE,22,3.1,4.9,54,0.00,,---,0.00,VWS V14.01,2013-03-01 17:40:00,
2013-03-01 11:45:00,28.6,14.1,30.36,NNE,22,4.3,6.3,54,0.00,,---,0.00,VWS V14.01,2013-03-01 17:45:00,
2013-03-01 11:51:00,28.6,14.1,30.36,NNW,338,2.9,4.3,54,0.00,,---,0.00,VWS V14.01,2013-03-01 17:51:00,
2013-03-01 11:57:00,29.1,14.6,30.36,North,0,4.0,4.5,54,0.00,,---,0.00,VWS V14.01,2013-03-01 17:57:00,
2013-03-01 12:02:00,29.3,14.7,30.36,NNE,22,3.8,4.5,54,0.00,,---,0.00,VWS V14.01,2013-03-01 18:02:00,
2013-03-01 12:07:00,29.5,14.5,30.36,ENE,68,5.4,5.4,53,0.00,,---,0.00,VWS V14.01,2013-03-01 18:07:00,
2013-03-01 12:12:00,29.5,14.5,30.33,ENE,68,2.7,3.6,53,0.00,,---,0.00,VWS V14.01,2013-03-01 18:12:00,
2013-03-01 12:18:00,30.0,15.0,30.33,North,0,2.9,3.6,53,0.00,,---,0.00,VWS V14.01,2013-03-01 18:18:00,
2013-03-01 12:24:00,30.2,15.1,30.33,NE,45,1.6,3.4,53,0.00,,---,0.00,VWS V14.01,2013-03-01 18:24:00,
2013-03-01 12:30:00,30.0,14.5,30.36,NNE,22,4.3,7.4,52,0.00,,---,0.00,VWS V14.01,2013-03-01 18:30:00,
2013-03-01 12:36:00,30.2,14.7,30.36,NNE,22,4.3,8.7,52,0.00,,---,0.00,VWS V14.01,2013-03-01 18:36:00,
2013-03-01 12:41:00,30.0,14.5,30.36,NNE,22,3.8,5.8,52,0.00,,---,0.00,VWS V14.01,2013-03-01 18:41:00,
2013-03-01 12:46:00,30.2,14.7,30.36,NNE,22,2.7,6.5,52,0.00,,---,0.00,VWS V14.01,2013-03-01 18:46:00,
2013-03-01 12:51:00,30.2,14.7,30.36,NNE,22,2.9,3.4,52,0.00,,---,0.00,VWS V14.01,2013-03-01 18:51:00,
2013-03-01 12:57:00,30.6,14.6,30.33,NNW,338,2.9,3.6,51,0.00,,---,0.00,VWS V14.01,2013-03-01 18:57:00,
2013-03-01 13:02:00,30.0,14.1,30.33,WNW,292,4.0,4.7,51,0.00,,---,0.00,VWS V14.01,2013-03-01 19:02:00,
2013-03-01 13:08:00,30.0,14.5,30.33,NE,45,4.3,5.6,52,0.00,,---,0.00,VWS V14.01,2013-03-01 19:08:00,
2013-03-01 13:14:00,30.7,14.8,30.33,NNE,22,2.9,4.3,51,0.00,,---,0.00,VWS V14.01,2013-03-01 19:14:00,
2013-03-01 13:19:00,31.8,15.8,30.33,ENE,68,3.1,4.7,51,0.00,,---,0.00,VWS V14.01,2013-03-01 19:19:00,
2013-03-01 13:25:00,32.7,16.6,30.33,NNW,338,3.1,5.6,51,0.00,,---,0.00,VWS V14.01,2013-03-01 19:25:00,
2013-03-01 13:30:00,32.7,16.1,30.33,North,0,2.0,4.3,50,0.00,,---,0.00,VWS V14.01,2013-03-01 19:30:00,
2013-03-01 13:35:00,32.7,16.1,30.33,NW,315,2.5,3.1,50,0.00,,---,0.00,VWS V14.01,2013-03-01 19:35:00,
2013-03-01 13:40:00,32.4,15.8,30.33,NNE,22,3.6,3.6,50,0.00,,---,0.00,VWS V14.01,2013-03-01 19:40:00,
2013-03-01 13:46:00,32.7,16.1,30.33,ENE,68,5.6,6.3,50,0.00,,---,0.00,VWS V14.01,2013-03-01 19:46:00,
2013-03-01 13:51:00,32.2,15.2,30.33,NNE,22,2.5,5.4,49,0.00,,---,0.00,VWS V14.01,2013-03-01 19:51:00,
2013-03-01 13:57:00,32.0,15.0,30.33,NNW,338,3.8,5.8,49,0.00,,---,0.00,VWS V14.01,2013-03-01 19:57:00,
2013-03-01 14:03:00,31.8,14.4,30.33,North,0,4.9,4.9,48,0.00,,---,0.00,VWS V14.01,2013-03-01 20:03:00,
2013-03-01 14:08:00,31.6,14.7,30.33,NNE,22,3.4,7.4,49,0.00,,---,0.00,VWS V14.01,2013-03-01 20:08:00,
2013-03-01 14:14:00,31.6,14.7,30.33,North,0,3.8,6.0,49,0.00,,---,0.00,VWS V14.01,2013-03-01 20:14:00,
2013-03-01 14:19:00,31.3,14.4,30.33,NW,315,4.0,8.7,49,0.00,,---,0.00,VWS V14.01,2013-03-01 20:19:00,
2013-03-01 14:24:00,31.1,13.2,30.33,WNW,292,2.0,5.4,47,0.00,,---,0.00,VWS V14.01,2013-03-01 20:24:00,
2013-03-01 14:29:00,31.5,14.5,30.33,North,0,2.7,6.3,49,0.00,,---,0.00,VWS V14.01,2013-03-01 20:29:00,
2013-03-01 14:35:00,31.3,14.4,30.33,NNE,22,4.9,4.9,49,0.00,,---,0.00,VWS V14.01,2013-03-01 20:35:00,
2013-03-01 14:40:00,31.3,14.4,30.33,NNW,338,5.8,8.5,49,0.00,,---,0.00,VWS V14.01,2013-03-01 20:40:00,
2013-03-01 14:45:00,31.1,14.2,30.33,NNE,22,2.0,2.9,49,0.00,,---,0.00,VWS V14.01,2013-03-01 20:45:00,
2013-03-01 14:50:00,31.1,14.2,30.33,SE,135,1.1,3.1,49,0.00,,---,0.00,VWS V14.01,2013-03-01 20:50:00,
2013-03-01 14:56:00,31.1,14.2,30.33,East,90,2.7,4.3,49,0.00,,---,0.00,VWS V14.01,2013-03-01 20:56:00,
2013-03-01 15:01:00,31.1,14.6,30.33,NE,45,3.8,6.3,50,0.00,,---,0.00,VWS V14.01,2013-03-01 21:01:00,
2013-03-01 15:06:00,31.1,14.6,30.33,NE,45,2.5,2.7,50,0.00,,---,0.00,VWS V14.01,2013-03-01 21:06:00,
2013-03-01 15:11:00,30.9,14.0,30.33,ENE,68,2.5,3.8,49,0.00,,---,0.00,VWS V14.01,2013-03-01 21:11:00,
2013-03-01 15:16:00,30.7,13.9,30.33,NNE,22,0.9,2.5,49,0.00,,---,0.00,VWS V14.01,2013-03-01 21:16:00,
2013-03-01 15:22:00,30.6,13.7,30.33,North,0,5.6,6.3,49,0.00,,---,0.00,VWS V14.01,2013-03-01 21:22:00,
2013-03-01 15:28:00,30.6,13.7,30.33,NW,315,2.0,6.0,49,0.00,,---,0.00,VWS V14.01,2013-03-01 21:28:00,
2013-03-01 15:33:00,30.6,14.1,30.33,ENE,68,2.5,4.3,50,0.00,,---,0.00,VWS V14.01,2013-03-01 21:33:00,
2013-03-01 15:39:00,30.4,13.5,30.33,WNW,292,3.4,3.8,49,0.00,,---,0.00,VWS V14.01,2013-03-01 21:39:00,
2013-03-01 15:44:00,30.4,13.1,30.33,ENE,68,2.0,5.8,48,0.00,,---,0.00,VWS V14.01,2013-03-01 21:44:00,
2013-03-01 15:50:00,30.2,13.4,30.33,NNW,338,2.9,4.7,49,0.00,,---,0.00,VWS V14.01,2013-03-01 21:50:00,
2013-03-01 15:56:00,30.2,13.4,30.33,ENE,68,2.9,3.8,49,0.00,,---,0.00,VWS V14.01,2013-03-01 21:56:00,
2013-03-01 16:01:00,30.4,13.5,30.33,NNW,338,6.3,6.3,49,0.00,,---,0.00,VWS V14.01,2013-03-01 22:01:00,
2013-03-01 16:07:00,30.4,13.5,30.33,ENE,68,2.0,2.0,49,0.00,,---,0.00,VWS V14.01,2013-03-01 22:07:00,
2013-03-01 16:13:00,30.4,13.5,30.33,NNE,22,3.6,3.8,49,0.00,,---,0.00,VWS V14.01,2013-03-01 22:13:00,
2013-03-01 16:18:00,30.2,13.4,30.33,NNE,22,2.2,3.1,49,0.00,,---,0.00,VWS V14.01,2013-03-01 22:18:00,
2013-03-01 16:23:00,30.2,13.4,30.33,WNW,292,2.2,3.1,49,0.00,,---,0.00,VWS V14.01,2013-03-01 22:23:00,
2013-03-01 16:28:00,30.2,13.4,30.33,ENE,68,2.2,3.6,49,0.00,,---,0.00,VWS V14.01,2013-03-01 22:28:00,
2013-03-01 16:33:00,30.2,13.4,30.33,North,0,4.9,4.9,49,0.00,,---,0.00,VWS V14.01,2013-03-01 22:33:00,
2013-03-01 16:39:00,30.0,13.2,30.33,NNE,22,2.9,3.1,49,0.00,,---,0.00,VWS V14.01,2013-03-01 22:39:00,
2013-03-01 16:44:00,30.0,13.6,30.33,East,90,3.4,3.4,50,0.00,,---,0.00,VWS V14.01,2013-03-01 22:44:00,
2013-03-01 16:49:00,29.8,13.0,30.33,NNE,22,6.5,6.5,49,0.00,,---,0.00,VWS V14.01,2013-03-01 22:49:00,
2013-03-01 16:55:00,29.7,12.9,30.33,NNE,22,2.7,3.8,49,0.00,,---,0.00,VWS V14.01,2013-03-01 22:55:00,
2013-03-01 17:00:00,29.5,12.7,30.33,North,0,3.1,4.5,49,0.00,,---,0.00,VWS V14.01,2013-03-01 23:00:00,
2013-03-01 17:05:00,29.5,13.1,30.33,ENE,68,2.9,3.4,50,0.00,,---,0.00,VWS V14.01,2013-03-01 23:05:00,
2013-03-01 17:10:00,29.3,13.0,30.33,NE,45,4.3,4.9,50,0.00,,---,0.00,VWS V14.01,2013-03-01 23:10:00,
2013-03-01 17:16:00,29.1,12.4,30.33,ENE,68,2.2,3.4,49,0.00,,---,0.00,VWS V14.01,2013-03-01 23:16:00,
2013-03-01 17:21:00,28.9,12.6,30.33,NNE,22,3.1,3.8,50,0.00,,---,0.00,VWS V14.01,2013-03-01 23:21:00,
2013-03-01 17:26:00,28.6,11.9,30.33,ENE,68,2.2,4.0,49,0.00,,---,0.00,VWS V14.01,2013-03-01 23:26:00,
2013-03-01 17:31:00,28.6,11.9,30.33,NNE,22,2.2,3.6,49,0.00,,---,0.00,VWS V14.01,2013-03-01 23:31:00,
2013-03-01 17:36:00,28.2,12.0,30.33,NE,45,1.6,2.7,50,0.00,,---,0.00,VWS V14.01,2013-03-01 23:36:00,
2013-03-01 17:42:00,28.2,12.0,30.33,NE,45,2.5,4.0,50,0.00,,---,0.00,VWS V14.01,2013-03-01 23:42:00,
2013-03-01 17:47:00,27.9,11.6,30.33,NNE,22,3.4,4.3,50,0.00,,---,0.00,VWS V14.01,2013-03-01 23:47:00,
2013-03-01 17:52:00,27.9,11.6,30.33,NE,45,3.1,4.0,50,0.00,,---,0.00,VWS V14.01,2013-03-01 23:52:00,
2013-03-01 17:57:00,27.7,11.5,30.36,ENE,68,2.5,2.5,50,0.00,,---,0.00,VWS V14.01,2013-03-01 23:57:00,
2013-03-01 18:03:00,27.3,11.1,30.36,North,0,2.0,3.1,50,0.00,,---,0.00,VWS V14.01,2013-03-02 00:03:00,
2013-03-01 18:08:00,27.1,11.0,30.36,NE,45,1.3,2.5,50,0.00,,---,0.00,VWS V14.01,2013-03-02 00:08:00,
2013-03-01 18:13:00,27.0,11.3,30.33,NE,45,0.9,3.4,51,0.00,,---,0.00,VWS V14.01,2013-03-02 00:13:00,
2013-03-01 18:19:00,26.8,11.1,30.33,ENE,68,1.6,1.6,51,0.00,,---,0.00,VWS V14.01,2013-03-02 00:19:00,
2013-03-01 18:24:00,26.6,10.9,30.33,NNE,22,2.5,2.5,51,0.00,,---,0.00,VWS V14.01,2013-03-02 00:24:00,
2013-03-01 18:30:00,26.4,10.8,30.36,NE,45,2.0,2.5,51,0.00,,---,0.00,VWS V14.01,2013-03-02 00:30:00,
2013-03-01 18:35:00,26.2,10.6,30.36,NNE,22,2.0,3.4,51,0.00,,---,0.00,VWS V14.01,2013-03-02 00:35:00,
2013-03-01 18:41:00,26.2,10.6,30.36,NE,45,2.5,2.7,51,0.00,,---,0.00,VWS V14.01,2013-03-02 00:41:00,
2013-03-01 18:47:00,26.1,10.4,30.36,NNE,22,1.3,2.9,51,0.00,,---,0.00,VWS V14.01,2013-03-02 00:47:00,
2013-03-01 18:52:00,25.9,10.3,30.36,NW,315,1.1,2.7,51,0.00,,---,0.00,VWS V14.01,2013-03-02 00:52:00,
2013-03-01 18:58:00,25.7,10.1,30.36,NW,315,0.0,0.0,51,0.00,,---,0.00,VWS V14.01,2013-03-02 00:58:00,
2013-03-01 19:04:00,25.5,10.4,30.36,NNW,338,2.0,2.0,52,0.00,,---,0.00,VWS V14.01,2013-03-02 01:04:00,
2013-03-01 19:09:00,25.3,10.2,30.36,NNW,338,2.0,3.1,52,0.00,,---,0.00,VWS V14.01,2013-03-02 01:09:00,
2013-03-01 19:15:00,25.3,10.2,30.36,NNW,338,1.6,2.5,52,0.00,,---,0.00,VWS V14.01,2013-03-02 01:15:00,
2013-03-01 19:20:00,25.2,10.0,30.36,North,0,2.7,3.4,52,0.00,,---,0.00,VWS V14.01,2013-03-02 01:20:00,
2013-03-01 19:25:00,25.0,9.9,30.36,NNE,22,1.1,3.1,52,0.00,,---,0.00,VWS V14.01,2013-03-02 01:25:00,
2013-03-01 19:30:00,24.8,9.7,30.36,NNE,22,1.6,2.0,52,0.00,,---,0.00,VWS V14.01,2013-03-02 01:30:00,
2013-03-01 19:36:00,24.6,9.9,30.36,NE,45,2.7,2.9,53,0.00,,---,0.00,VWS V14.01,2013-03-02 01:36:00,
2013-03-01 19:41:00,24.4,9.8,30.36,ENE,68,2.0,2.7,53,0.00,,---,0.00,VWS V14.01,2013-03-02 01:41:00,
2013-03-01 19:47:00,24.4,9.8,30.36,North,0,2.7,3.4,53,0.00,,---,0.00,VWS V14.01,2013-03-02 01:47:00,
2013-03-01 19:53:00,24.3,10.0,30.36,NW,315,2.7,3.4,54,0.00,,---,0.00,VWS V14.01,2013-03-02 01:53:00,
2013-03-01 19:59:00,23.9,9.7,30.36,NNW,338,2.0,4.0,54,0.00,,---,0.00,VWS V14.01,2013-03-02 01:59:00,
2013-03-01 20:04:00,23.7,9.9,30.36,NW,315,2.5,4.0,55,0.00,,---,0.00,VWS V14.01,2013-03-02 02:04:00,
2013-03-01 20:09:00,23.7,9.9,30.36,NNE,22,1.1,2.7,55,0.00,,---,0.00,VWS V14.01,2013-03-02 02:09:00,
2013-03-01 20:14:00,23.5,9.8,30.36,North,0,1.6,3.6,55,0.00,,---,0.00,VWS V14.01,2013-03-02 02:14:00,
2013-03-01 20:19:00,23.4,9.6,30.36,NW,315,2.0,4.9,55,0.00,,---,0.00,VWS V14.01,2013-03-02 02:19:00,
2013-03-01 20:24:00,23.2,9.8,30.36,NE,45,1.6,3.4,56,0.00,,---,0.00,VWS V14.01,2013-03-02 02:24:00,
2013-03-01 20:29:00,23.0,9.7,30.36,NW,315,2.0,3.6,56,0.00,,---,0.00,VWS V14.01,2013-03-02 02:29:00,
2013-03-01 20:34:00,23.0,9.7,30.36,NNE,22,4.0,5.8,56,0.00,,---,0.00,VWS V14.01,2013-03-02 02:34:00,
2013-03-01 20:39:00,22.8,9.5,30.36,NNW,338,2.5,3.8,56,0.00,,---,0.00,VWS V14.01,2013-03-02 02:39:00,
2013-03-01 20:44:00,22.6,9.3,30.36,NNE,22,2.2,2.5,56,0.00,,---,0.00,VWS V14.01,2013-03-02 02:44:00,
2013-03-01 20:49:00,22.6,9.3,30.36,NNE,22,3.1,3.1,56,0.00,,---,0.00,VWS V14.01,2013-03-02 02:49:00,
2013-03-01 20:54:00,22.5,9.5,30.36,NNE,22,2.0,4.7,57,0.00,,---,0.00,VWS V14.01,2013-03-02 02:54:00,
2013-03-01 20:59:00,22.3,9.4,30.36,NNE,22,2.5,2.7,57,0.00,,---,0.00,VWS V14.01,2013-03-02 02:59:00,
2013-03-01 21:05:00,22.1,9.2,30.36,NE,45,2.9,3.6,57,0.00,,---,0.00,VWS V14.01,2013-03-02 03:05:00,
2013-03-01 21:10:00,21.9,9.0,30.36,NNE,22,2.0,2.7,57,0.00,,---,0.00,VWS V14.01,2013-03-02 03:10:00,
2013-03-01 21:15:00,21.9,9.0,30.36,NE,45,2.2,4.0,57,0.00,,---,0.00,VWS V14.01,2013-03-02 03:15:00,
2013-03-01 21:21:00,21.7,8.9,30.36,North,0,4.3,4.3,57,0.00,,---,0.00,VWS V14.01,2013-03-02 03:21:00,
2013-03-01 21:26:00,21.6,8.7,30.36,NNE,22,3.8,3.8,57,0.00,,---,0.00,VWS V14.01,2013-03-02 03:26:00,
2013-03-01 21:31:00,21.4,8.9,30.36,NNW,338,2.0,2.5,58,0.00,,---,0.00,VWS V14.01,2013-03-02 03:31:00,
2013-03-01 21:36:00,21.4,8.9,30.36,NE,45,1.3,2.5,58,0.00,,---,0.00,VWS V14.01,2013-03-02 03:36:00,
2013-03-01 21:42:00,21.2,8.7,30.36,NNE,22,2.9,2.9,58,0.00,,---,0.00,VWS V14.01,2013-03-02 03:42:00,
2013-03-01 21:47:00,21.2,8.7,30.36,NE,45,2.0,2.2,58,0.00,,---,0.00,VWS V14.01,2013-03-02 03:47:00,
2013-03-01 21:52:00,21.0,8.6,30.36,NNW,338,2.0,2.5,58,0.00,,---,0.00,VWS V14.01,2013-03-02 03:52:00,
2013-03-01 21:57:00,20.8,8.4,30.36,NE,45,4.0,4.9,58,0.00,,---,0.00,VWS V14.01,2013-03-02 03:57:00,
2013-03-01 22:02:00,20.7,8.6,30.36,NNW,338,3.8,3.8,59,0.00,,---,0.00,VWS V14.01,2013-03-02 04:02:00,
2013-03-01 22:07:00,20.5,8.4,30.36,ENE,68,3.1,4.9,59,0.00,,---,0.00,VWS V14.01,2013-03-02 04:07:00,
2013-03-01 22:13:00,20.5,8.4,30.36,North,0,0.0,4.0,59,0.00,,---,0.00,VWS V14.01,2013-03-02 04:13:00,
2013-03-01 22:18:00,20.3,8.3,30.36,ENE,68,2.9,3.6,59,0.00,,---,0.00,VWS V14.01,2013-03-02 04:18:00,
2013-03-01 22:24:00,20.1,8.1,30.36,North,0,1.3,2.5,59,0.00,,---,0.00,VWS V14.01,2013-03-02 04:24:00,
2013-03-01 22:29:00,20.1,8.1,30.36,NNW,338,3.8,4.3,59,0.00,,---,0.00,VWS V14.01,2013-03-02 04:29:00,
2013-03-01 22:34:00,19.9,7.9,30.36,NNE,22,2.9,2.9,59,0.00,,---,0.00,VWS V14.01,2013-03-02 04:34:00,
2013-03-01 22:39:00,19.8,7.8,30.36,NNE,22,1.3,2.2,59,0.00,,---,0.00,VWS V14.01,2013-03-02 04:39:00,
2013-03-01 22:45:00,19.8,7.8,30.36,NNW,338,2.9,4.0,59,0.00,,---,0.00,VWS V14.01,2013-03-02 04:45:00,
2013-03-01 22:50:00,19.6,7.6,30.36,NE,45,2.2,2.9,59,0.00,,---,0.00,VWS V14.01,2013-03-02 04:50:00,
2013-03-01 22:55:00,19.4,7.8,30.36,NNE,22,3.1,3.1,60,0.00,,---,0.00,VWS V14.01,2013-03-02 04:55:00,
2013-03-01 23:01:00,19.2,7.6,30.39,ENE,68,3.1,3.1,60,0.00,,---,0.00,VWS V14.01,2013-03-02 05:01:00,
2013-03-01 23:02:00,19.2,7.6,30.39,NE,45,2.0,3.1,60,0.00,,---,0.00,VWS V14.01,2013-03-02 05:02:00,
2013-03-01 23:04:00,19.2,7.6,30.39,NNE,22,2.0,4.0,60,0.00,,---,0.00,VWS V14.01,2013-03-02 05:04:00,
2013-03-01 23:08:00,19.0,7.4,30.39,ENE,68,2.0,2.2,60,0.00,,---,0.00,VWS V14.01,2013-03-02 05:08:00,
2013-03-01 23:13:00,19.0,7.4,30.36,NE,45,1.3,1.3,60,0.00,,---,0.00,VWS V14.01,2013-03-02 05:13:00,
2013-03-01 23:18:00,18.7,7.1,30.36,NE,45,2.2,3.6,60,0.00,,---,0.00,VWS V14.01,2013-03-02 05:18:00,
2013-03-01 23:23:00,18.7,7.5,30.36,ENE,68,2.2,2.2,61,0.00,,---,0.00,VWS V14.01,2013-03-02 05:23:00,
2013-03-01 23:28:00,18.5,6.9,30.36,East,90,2.9,2.9,60,0.00,,---,0.00,VWS V14.01,2013-03-02 05:28:00,
2013-03-01 23:34:00,18.3,7.1,30.36,NNE,22,2.0,2.0,61,0.00,,---,0.00,VWS V14.01,2013-03-02 05:34:00,
2013-03-01 23:39:00,18.3,7.1,30.36,NE,45,2.9,3.6,61,0.00,,---,0.00,VWS V14.01,2013-03-02 05:39:00,
2013-03-01 23:45:00,18.1,7.0,30.36,NE,45,2.0,3.1,61,0.00,,---,0.00,VWS V14.01,2013-03-02 05:45:00,
2013-03-01 23:50:00,18.0,6.8,30.36,NE,45,1.6,1.6,61,0.00,,---,0.00,VWS V14.01,2013-03-02 05:50:00,
2013-03-01 23:56:00,17.8,6.6,30.36,NNE,22,1.6,2.5,61,0.00,,---,0.00,VWS V14.01,2013-03-02 05:56:00,